Regional Weather Roundup
Issued by NWS Mobile, AL

Home | Current Version | Previous Version | Text Only | Print | Product List | Glossary On
Versions: 1 2 3 4 5 6 7 8 9 10 11 12 13 14 15 16 17 18 19 20 21 22 23 24 25 26 27 28 29 30 31 32 33 34 35 36 37 38 39 40 41 42 43 44 45 46 47 48 49 50
000
ASUS44 KMOB 051017
RWRMOB
REGIONAL WEATHER ROUNDUP
NATIONAL WEATHER SERVICE MOBILE AL
500 AM CDT SUN JUL 05 2015

ALZ061>064-051100-
COASTAL ALABAMA


CITY           SKY/WX    TMP DP  RH WIND       PRES   REMARKS
MOBILE REG APT CLOUDY    75  73  93 NE3       30.11R
BROOKLEY FIELD CLOUDY    76  75  97 CALM      30.11R
GULF SHORES    CLOUDY    75  74  97 CALM      30.10R

$$

ALZ051>060-051100-
INTERIOR SOUTHWEST AND SOUTH CENTRAL ALABAMA


CITY           SKY/WX    TMP DP  RH WIND       PRES   REMARKS
ANDALUSIA/OPP  CLOUDY    74  70  87 CALM      30.12R
EVERGREEN      CLOUDY    71  70  96 CALM      30.13R
FLORALA        CLOUDY    71  69  93 CALM      30.13R
GREENVILLE     RAIN      70  68  93 NW3       30.12R FOG

$$

FLZ001>006-051100-
WESTERN FLORIDA PANHANDLE


CITY           SKY/WX    TMP DP  RH WIND       PRES   REMARKS
CRESTVIEW      CLOUDY    71  70  96 CALM      30.11S
DESTIN         MOCLDY    77  74  90 CALM      30.10R
DUKE FIELD     FAIR      71  69  94 CALM      30.09S
MARY ESTHER    CLOUDY    73  69  88 CALM      30.09R
MILTON         CLOUDY    75  70  84 CALM      30.10R
PENSACOLA      CLOUDY    76  75  97 E3        30.09R
NAS PENSACOLA  CLOUDY    75  72  90 CALM      30.09R FOG
VALPARAISO     CLOUDY    73  70  89 NE1       30.10R

$$

...MARINE OBSERVATIONS...

STATION/POSITION TIME  SKY/WX   TEMP    WIND        PRES    VSBY
                                AIR SEA DIR/SP/G
                 (UTC)          (F)     (DEG/KT/KT) (MB)    (MI)
PASCAGOULA       0900            83     180/  6/  7 1018.2R
GRAND BAY        0845            82     170/  8     1019.0
PETIT BOIS ISL   0900            85     170/  5/  6 1018.8R
E DAUPHIN ISLAND 1000            83     160/ 10/ 10 1019.0R
MIDDLE BAY LIGHT 0900            78     120/  9     1017.6R
USCG MOBILE BAY  0900            79 85  160/  4/  6 1017.5R
STATE DOCKS      0900            79 86              1018.4R
MEAHER PARK      1000            76     120/  4     1019.0R
FORT MORGAN      0900            80     150/  6/  8 1018.0R
12 S ORANGE BCH  0950            83 84  170/  8/ 10 1018.2R
WVE H/P(F/S)=  1/ 4

PENSACOLA BAY    0900            82 84  190/  2/  3 1018.9R
64 S DAUPHIN ISL 0950            84 85  200/ 12/ 14 1018.9R
WVE H/P(F/S)=  2/ 4

67 S FORT MORGAN 0930            83     200/ 12     1019.0R
115 SE PENSACOLA 0950            83 84  190/  6/  6 1019.6R
WVE H/P(F/S)=  2/ 5

MID GULF/42001   0950            84 85  120/  8/ 10 1019.2R
WVE H/P(F/S)=  2/ 6

EAST GULF/42003  0950            85 86  110/  8/ 10 1018.5S
WVE H/P(F/S)=  3/ 8


$$

...NEARBY LOCATIONS

CITY           SKY/WX    TMP DP  RH WIND       PRES   REMARKS
GULFPORT       CLOUDY    78  74  87 CALM      30.09R
BILOXI         CLOUDY    81  77  88 SW7       30.09R
PASCAGOULA     CLOUDY    74  73  97 CALM      30.09R FOG
HATTIESBURG    CLOUDY    74  72  93 CALM      30.11R
LAUREL         CLOUDY    72  70  94 CALM      30.12R
MERIDIAN       CLOUDY    70  69  97 SW3       30.10R
MERIDIAN NAS   LGT RAIN  71  69  93 S3        30.10R
MONTGOMERY     CLOUDY    71  68  90 CALM      30.10S
MAXWELL AFB    CLOUDY    71  69  96 CALM      30.09S
TROY           CLOUDY    70  68  93 CALM      30.12R
FORT RUCKER    CLOUDY    71  69  93 CALM      30.11R
DALEVILLE      MOCLDY    70  70  99 CALM      30.11R
DOTHAN         MOCLDY    71  69  93 S3          N/A

$$

...OTHER SURROUNDING LOCATIONS...

CITY           SKY/WX    TMP DP  RH WIND       PRES   REMARKS
BIRMINGHAM     CLOUDY    70  68  93 S8        30.11S
TUSCALOOSA     CLOUDY    72  69  90 CALM      30.10R
COLUMBUS GA    CLOUDY    70  66  88 CALM      30.11R
PANAMA CITY    NOT AVBL
TALLAHASSEE    PTCLDY    72  70  93 CALM      30.13R FOG
BATON ROUGE    LGT RAIN  75  73  93 CALM      30.08R
NEW ORLEANS    LGT RAIN  79  74  84 CALM      30.09R
SLIDELL        LGT RAIN  75  74  96 N3        30.09R
JACKSON        CLOUDY    72  70  93 S3        30.09R
MCCOMB         CLOUDY    72  72 100 N3        30.10R

$$

...SURROUNDING MARINE OBSERVATIONS...

STATION/POSITION TIME  SKY/WX   TEMP    WIND        PRES    VSBY
                                AIR SEA DIR/SP/G
                 (UTC)          (F)     (DEG/KT/KT) (MB)    (MI)
WAVELAND         0900            81 84  220/  2/  3 1018.5R
PASCAGOULA RGN A 0900            82     180/  5/  8 1017.9R
PASCAGOULA PORT  0900               83                N/A
GRAND ISLE       0900            84 87  190/  4/  9 1018.1R
SOUTHWEST PASS   1000            83     200/  9/  9 1019.0R
PILOT STATION E  0900            83 82  190/  8/  9 1018.8S
SHELL BEACH      0900            81 85  130/  2/  3 1017.8R
PANAMA CITY      0900            76 85   80/  3/  8 1018.7R
APALACHICOLA     0900            81 85  350/  1/  2 1019.2R
TYNDALL TOWER C  1000            82     190/  5/  5 1019.8R
S APLCHCLA/42036 0950            85 86  180/  6/  8 1019.7R
WVE H/P(F/S)=  1/ 8


$$




USA.gov is the U.S. government's official web portal to all federal, state and local government web resources and services.